Weather History for CWGT - February, 2013

Change the Weather History Date:

Wednesday, February 6, 2013

  Actual Average Record
Temperature  
Mean Temperature 44 °F -  
Max Temperature 46 °F - - ()
Min Temperature 43 °F - - ()
Degree Days  
Heating Degree Days 20    
Moisture  
Dew Point 39 °F    
Average Humidity 80    
Maximum Humidity 91    
Minimum Humidity 67    
Precipitation  
Precipitation 0.00 in - - ()
Sea Level Pressure  
Sea Level Pressure 29.80 in    
Wind  
Wind Speed 19 mph ()    
Max Wind Speed 45 mph    
Max Gust Speed 53 mph    
T = Trace of Precipitation, MM = Missing Value Source: Averaged Metar Reports

Daily Weather History Graph

Daily Weather History Graph

Search for Another Location

Airport or City:

Trip Planner

Search our weather history database for the weather conditions in past years. The results will help you decide how hot, cold, wet, or windy it might be!

Date:

Astronomy

Feb. 06, 2013 Rise Set
Actual Time 7:41 AM PST 5:22 PM PST
Civil Twilight 7:07 AM PST 5:56 PM PST
Nautical Twilight 6:29 AM PST 6:34 PM PST
Astronomical Twilight 5:52 AM PST 7:11 PM PST
Moon 4:42 AM PST (2/6) 1:36 PM PST (2/6)
Length of Visible Light 10h 48m
Length of Day
9h 41m
Waning Crescent, 16% of the Moon is Illuminated
Feb 6
Waning Crescent
Feb 9
New
Feb 17
First Quarter
Feb 25
Full
Mar 4
Last Quarter

Hourly Weather History & Observations

Time (PST) Temp. Windchill Dew Point Humidity Pressure Visibility Wind Dir Wind Speed Gust Speed Precip Events Conditions
12:00 AM 45.1 °F 37.6 °F 37.6 °F 75% 29.77 in - SE 18.4 mph - N/A   Unknown
1:00 AM 44.8 °F 38.0 °F 38.3 °F 78% 29.81 in - SE 15.0 mph - N/A   Unknown
2:00 AM 46.2 °F 42.2 °F 36.5 °F 69% 29.82 in - SSE 8.1 mph - N/A   Unknown
3:00 AM 45.5 °F 40.8 °F 35.1 °F 67% 29.85 in - SE 9.2 mph - N/A   Unknown
4:00 AM 44 °F - 38 °F 73% 29.86 in - East 8.1 mph - -  
4:00 AM 43.9 °F 39.3 °F 38.1 °F 80% 29.86 in - East 8.1 mph - N/A   Unknown
5:00 AM 44.1 °F 37.7 °F 38.5 °F 81% 29.87 in - SE 12.7 mph - N/A   Unknown
6:00 AM 44.1 °F 37.7 °F 39.0 °F 82% 29.88 in - ESE 12.7 mph - N/A   Unknown
7:00 AM 44.4 °F 38.6 °F 37.2 °F 76% 29.88 in - ESE 11.5 mph - N/A   Unknown
8:00 AM 44.1 °F 37.1 °F 36.3 °F 74% 29.89 in - SE 15.0 mph - N/A   Unknown
9:00 AM 43.9 °F 35.7 °F 38.8 °F 82% 29.88 in - SE 19.6 mph - N/A   Unknown
10:00 AM 44 °F - 38 °F 73% 29.90 in - ESE 21.9 mph - -  
10:00 AM 43.9 °F 35.2 °F 38.3 °F 81% 29.90 in - ESE 21.9 mph - N/A   Unknown
11:00 AM 44.6 °F 35.9 °F 38.8 °F 80% 29.89 in - SE 23.0 mph - N/A   Unknown
12:00 PM 44.4 °F 35.3 °F 39.4 °F 82% 29.87 in - ESE 25.3 mph 32.2 mph N/A   Unknown
1:00 PM 44.8 °F 34.8 °F 40.6 °F 85% 29.86 in - ESE 31.1 mph - N/A   Unknown
2:00 PM 44.1 °F 33.7 °F 41.0 °F 89% 29.84 in - ESE 32.2 mph - N/A   Unknown
3:00 PM 44.1 °F 33.2 °F 39.9 °F 85% 29.81 in - ESE 35.7 mph - N/A   Unknown
4:00 PM 44 °F - 40 °F 82% 29.81 in - ESE 32.2 mph - -  
4:00 PM 43.7 °F 33.2 °F 40.3 °F 88% 29.81 in - ESE 32.2 mph - N/A   Unknown
5:00 PM 43.9 °F 32.9 °F 41.4 °F 91% 29.77 in - ESE 35.7 mph - N/A   Unknown
6:00 PM 43.9 °F 32.5 °F 40.8 °F 89% 29.73 in - ESE 39.1 mph 47.2 mph N/A   Unknown
7:00 PM 44.2 °F 32.6 °F 40.3 °F 86% 29.70 in - ESE 42.6 mph 48.3 mph N/A   Unknown
8:00 PM 43.9 °F 32.1 °F 39.9 °F 86% 29.68 in - ESE 42.6 mph 49.5 mph N/A   Unknown
9:00 PM 43.9 °F 31.8 °F 39.4 °F 84% 29.66 in - ESE 44.9 mph 51.8 mph N/A   Unknown
10:00 PM 45 °F - 38 °F 69% 29.65 in - ESE 43.7 mph - -  
10:00 PM 45.1 °F 33.7 °F 38.1 °F 76% 29.65 in - ESE 43.7 mph 52.9 mph N/A   Unknown
11:00 PM 45.9 °F 34.6 °F 37.9 °F 74% 29.62 in - ESE 44.9 mph 51.8 mph N/A   Unknown